User: anonymous   Login
Location: Unspecified
(0.0000°N, 0.0000°E)
Time: 22:13:19
(UTC+00:00)
Language:

ZACube-1 - Orbit

View from above orbital plane
View from above orbital plane
View from above satellite
View from above satellite

Ground track
Ground track

The orbit data is extracted from the following two-line orbital elements,

1 39417U 13066B   18343.84688037 +.00000218 +00000-0 +33959-4 0  9997
2 39417 097.5735 002.9768 0057712 300.3592 059.1923 14.81023108272792
Epoch (UTC): 09 December 2018 20:19:30
Eccentricity: 0.0057712
inclination: 97.5735°
perigee height: 585 km
apogee height: 666 km
right ascension of ascending node: 2.9768°
argument of perigee: 300.3592°
revolutions per day: 14.81023108
mean anomaly at epoch: 59.1923°
orbit number at epoch: 27279

The dashed part of the orbit path shows where the satellite is in the earth's shadow,  

DLR